����������;��������(kWh)
2017-08-14 00:00;87,05
2017-08-14 00:15;85,35
2017-08-14 00:30;85,6
2017-08-14 00:45;84,75
2017-08-14 01:00;85,4
2017-08-14 01:15;83,15
2017-08-14 01:30;84,35
2017-08-14 01:45;81,95
2017-08-14 02:00;83,65
2017-08-14 02:15;82,45
2017-08-14 02:30;83,65
2017-08-14 02:45;82,35
2017-08-14 03:00;82,75
2017-08-14 03:15;81,4
2017-08-14 03:30;82,3
2017-08-14 03:45;83,1
2017-08-14 04:00;79,7
2017-08-14 04:15;83,15
2017-08-14 04:30;79,7
2017-08-14 04:45;82,95
2017-08-14 05:00;78,7
2017-08-14 05:15;82,3
2017-08-14 05:30;79,75
2017-08-14 05:45;80,45
2017-08-14 06:00;78,05
2017-08-14 06:15;77,15
2017-08-14 06:30;79,1
2017-08-14 06:45;74,05
2017-08-14 07:00;74,55
2017-08-14 07:15;76,3
2017-08-14 07:30;77
2017-08-14 07:45;77,5
2017-08-14 08:00;78,85
2017-08-14 08:15;78,25
2017-08-14 08:30;79,45
2017-08-14 08:45;79,2
2017-08-14 09:00;82,2
2017-08-14 09:15;79,45
2017-08-14 09:30;81,9
2017-08-14 09:45;82,55
2017-08-14 10:00;81,15
2017-08-14 10:15;84
2017-08-14 10:30;81,25
2017-08-14 10:45;86,35
2017-08-14 11:00;83,3
2017-08-14 11:15;88,1
2017-08-14 11:30;86,25
2017-08-14 11:45;90,35
2017-08-14 12:00;88,35
2017-08-14 12:15;89,9
2017-08-14 12:30;90,85
2017-08-14 12:45;87,45
2017-08-14 13:00;87,85
2017-08-14 13:15;88,1
2017-08-14 13:30;89,7
2017-08-14 13:45;89
2017-08-14 14:00;92,7
2017-08-14 14:15;91,75
2017-08-14 14:30;92,1
2017-08-14 14:45;90,65
2017-08-14 15:00;90
2017-08-14 15:15;88,8
2017-08-14 15:30;89,7
2017-08-14 15:45;87,9
2017-08-14 16:00;86,15
2017-08-14 16:15;85,75
2017-08-14 16:30;86,7
2017-08-14 16:45;90,4
2017-08-14 17:00;88,6
2017-08-14 17:15;90,05
2017-08-14 17:30;90,95
2017-08-14 17:45;89,85
2017-08-14 18:00;90,75
2017-08-14 18:15;87,2
2017-08-14 18:30;87,05
2017-08-14 18:45;89
2017-08-14 19:00;89,2
2017-08-14 19:15;88,15
2017-08-14 19:30;86,65
2017-08-14 19:45;85,15
2017-08-14 20:00;84
2017-08-14 20:15;83,5
2017-08-14 20:30;87,7
2017-08-14 20:45;86,5
2017-08-14 21:00;86,3
2017-08-14 21:15;85,75
2017-08-14 21:30;84
2017-08-14 21:45;83,45
2017-08-14 22:00;83
2017-08-14 22:15;94
2017-08-14 22:30;91,1
2017-08-14 22:45;87,8
2017-08-14 23:00;94,85
2017-08-14 23:15;84,3
2017-08-14 23:30;85
2017-08-14 23:45;83,85
2017-08-15 00:00;83,7
2017-08-15 00:15;84,1
2017-08-15 00:30;83,95
2017-08-15 00:45;82,95
2017-08-15 01:00;82,45
2017-08-15 01:15;83,4
2017-08-15 01:30;80,3
2017-08-15 01:45;80,65
2017-08-15 02:00;80,85
2017-08-15 02:15;80,3
2017-08-15 02:30;81,5
2017-08-15 02:45;82,8
2017-08-15 03:00;81,45
2017-08-15 03:15;80,9
2017-08-15 03:30;80,75
2017-08-15 03:45;81,95
2017-08-15 04:00;81,6
2017-08-15 04:15;80,9
2017-08-15 04:30;79,85
2017-08-15 04:45;81,45
2017-08-15 05:00;80
2017-08-15 05:15;82
2017-08-15 05:30;79,75
2017-08-15 05:45;80,75
2017-08-15 06:00;80,05
2017-08-15 06:15;79,45
2017-08-15 06:30;79,15
2017-08-15 06:45;75,25
2017-08-15 07:00;74,6
2017-08-15 07:15;79,5
2017-08-15 07:30;76,1
2017-08-15 07:45;79,35
2017-08-15 08:00;78,45
2017-08-15 08:15;79,1
2017-08-15 08:30;81,4
2017-08-15 08:45;77,45
2017-08-15 09:00;81,55
2017-08-15 09:15;80,2
2017-08-15 09:30;83,6
2017-08-15 09:45;82,5
2017-08-15 10:00;81,75
2017-08-15 10:15;83,65
2017-08-15 10:30;81,2
2017-08-15 10:45;82,95
2017-08-15 11:00;80,55
2017-08-15 11:15;82,05
2017-08-15 11:30;82,05
2017-08-15 11:45;81,95
2017-08-15 12:00;83,8
2017-08-15 12:15;79,95
2017-08-15 12:30;83,45
2017-08-15 12:45;79,5
2017-08-15 13:00;83,5
2017-08-15 13:15;78,5
2017-08-15 13:30;79,15
2017-08-15 13:45;80,5
2017-08-15 14:00;81,85
2017-08-15 14:15;83,5
2017-08-15 14:30;83,8
2017-08-15 14:45;83,35
2017-08-15 15:00;83,75
2017-08-15 15:15;82,65
2017-08-15 15:30;81,7
2017-08-15 15:45;81,9
2017-08-15 16:00;83,8
2017-08-15 16:15;84,1
2017-08-15 16:30;81,9
2017-08-15 16:45;83,3
2017-08-15 17:00;84,75
2017-08-15 17:15;83,5
2017-08-15 17:30;83,8
2017-08-15 17:45;82,85
2017-08-15 18:00;84,35
2017-08-15 18:15;84,45
2017-08-15 18:30;85,05
2017-08-15 18:45;83,45
2017-08-15 19:00;84,95
2017-08-15 19:15;83,7
2017-08-15 19:30;82,8
2017-08-15 19:45;82,75
2017-08-15 20:00;83,05
2017-08-15 20:15;82,9
2017-08-15 20:30;87,45
2017-08-15 20:45;88,5
2017-08-15 21:00;87,9
2017-08-15 21:15;84,7
2017-08-15 21:30;83,4
2017-08-15 21:45;81,9
2017-08-15 22:00;83,55
2017-08-15 22:15;91,75
2017-08-15 22:30;89,3
2017-08-15 22:45;87,6
2017-08-15 23:00;92,55
2017-08-15 23:15;83,35
2017-08-15 23:30;82,95
2017-08-15 23:45;83,25
2017-08-16 00:00;84,05
2017-08-16 00:15;82,45
2017-08-16 00:30;83,1
2017-08-16 00:45;82,15
2017-08-16 01:00;84,5
2017-08-16 01:15;83,65
2017-08-16 01:30;80,25
2017-08-16 01:45;81,75
2017-08-16 02:00;80,75
2017-08-16 02:15;79,45
2017-08-16 02:30;81,55
2017-08-16 02:45;79,85
2017-08-16 03:00;81,05
2017-08-16 03:15;81,35
2017-08-16 03:30;80,3
2017-08-16 03:45;79,8
2017-08-16 04:00;79,6
2017-08-16 04:15;80,35
2017-08-16 04:30;80,2
2017-08-16 04:45;80,25
2017-08-16 05:00;78,8
2017-08-16 05:15;79,7
2017-08-16 05:30;81,75
2017-08-16 05:45;77,7
2017-08-16 06:00;79,9
2017-08-16 06:15;77,1
2017-08-16 06:30;78,8
2017-08-16 06:45;75,6
2017-08-16 07:00;72,25
2017-08-16 07:15;77,85
2017-08-16 07:30;74,75
2017-08-16 07:45;78,6
2017-08-16 08:00;76,1
2017-08-16 08:15;78,35
2017-08-16 08:30;81
2017-08-16 08:45;80,85
2017-08-16 09:00;79,8
2017-08-16 09:15;79,1
2017-08-16 09:30;82,85
2017-08-16 09:45;79,55
2017-08-16 10:00;82,25
2017-08-16 10:15;80,95
2017-08-16 10:30;79,45
2017-08-16 10:45;81,25
2017-08-16 11:00;80,3
2017-08-16 11:15;84,1
2017-08-16 11:30;83,6
2017-08-16 11:45;84,3
2017-08-16 12:00;85,15
2017-08-16 12:15;85,3
2017-08-16 12:30;87,05
2017-08-16 12:45;87,2
2017-08-16 13:00;88,7
2017-08-16 13:15;84,15
2017-08-16 13:30;89,1
2017-08-16 13:45;88,1
2017-08-16 14:00;88,65
2017-08-16 14:15;90,9
2017-08-16 14:30;87,9
2017-08-16 14:45;88,35
2017-08-16 15:00;85,95
2017-08-16 15:15;88,6
2017-08-16 15:30;85,3
2017-08-16 15:45;86,2
2017-08-16 16:00;86,1
2017-08-16 16:15;85,15
2017-08-16 16:30;82,6
2017-08-16 16:45;84,05
2017-08-16 17:00;84,7
2017-08-16 17:15;82,35
2017-08-16 17:30;86,5
2017-08-16 17:45;84,95
2017-08-16 18:00;85,6
2017-08-16 18:15;86,5
2017-08-16 18:30;86,15
2017-08-16 18:45;84,65
2017-08-16 19:00;85,4
2017-08-16 19:15;81,6
2017-08-16 19:30;81,2
2017-08-16 19:45;81,35
2017-08-16 20:00;84,15
2017-08-16 20:15;84,75
2017-08-16 20:30;87,25
2017-08-16 20:45;88,4
2017-08-16 21:00;88,6
2017-08-16 21:15;87,9
2017-08-16 21:30;87,9
2017-08-16 21:45;88,55
2017-08-16 22:00;84,1
2017-08-16 22:15;93,15
2017-08-16 22:30;91,3
2017-08-16 22:45;89,1
2017-08-16 23:00;93,7
2017-08-16 23:15;86
2017-08-16 23:30;85,3
2017-08-16 23:45;85,9
2017-08-17 00:00;84,35
2017-08-17 00:15;84,95
2017-08-17 00:30;84,9
2017-08-17 00:45;84,5
2017-08-17 01:00;83,1
2017-08-17 01:15;82,85
2017-08-17 01:30;82
2017-08-17 01:45;82,85
2017-08-17 02:00;82,35
2017-08-17 02:15;82
2017-08-17 02:30;82,95
2017-08-17 02:45;81,85
2017-08-17 03:00;83,75
2017-08-17 03:15;81
2017-08-17 03:30;82,5
2017-08-17 03:45;80,2
2017-08-17 04:00;81,35
2017-08-17 04:15;82,45
2017-08-17 04:30;81,35
2017-08-17 04:45;79,8
2017-08-17 05:00;79,3
2017-08-17 05:15;81,95
2017-08-17 05:30;79,4
2017-08-17 05:45;82,1
2017-08-17 06:00;80,05
2017-08-17 06:15;79,55
2017-08-17 06:30;80,15
2017-08-17 06:45;75
2017-08-17 07:00;74,6
2017-08-17 07:15;76,65
2017-08-17 07:30;76,95
2017-08-17 07:45;78,15
2017-08-17 08:00;79,15
2017-08-17 08:15;80,15
2017-08-17 08:30;82,05
2017-08-17 08:45;84,4
2017-08-17 09:00;84,05
2017-08-17 09:15;85
2017-08-17 09:30;84,8
2017-08-17 09:45;85
2017-08-17 10:00;84,2
2017-08-17 10:15;84,35
2017-08-17 10:30;86,1
2017-08-17 10:45;86,6
2017-08-17 11:00;88,65
2017-08-17 11:15;88,6
2017-08-17 11:30;90,9
2017-08-17 11:45;88,95
2017-08-17 12:00;91,75
2017-08-17 12:15;88,6
2017-08-17 12:30;90,9
2017-08-17 12:45;91,15
2017-08-17 13:00;90,05
2017-08-17 13:15;89,35
2017-08-17 13:30;89,15
2017-08-17 13:45;90,5
2017-08-17 14:00;90,45
2017-08-17 14:15;92,35
2017-08-17 14:30;92,35
2017-08-17 14:45;90
2017-08-17 15:00;91,8
2017-08-17 15:15;90,45
2017-08-17 15:30;94,55
2017-08-17 15:45;90,45
2017-08-17 16:00;87,35
2017-08-17 16:15;88,55
2017-08-17 16:30;87,45
2017-08-17 16:45;93,45
2017-08-17 17:00;95,1
2017-08-17 17:15;96,45
2017-08-17 17:30;96,75
2017-08-17 17:45;96,75
2017-08-17 18:00;94,2
2017-08-17 18:15;94,8
2017-08-17 18:30;92,95
2017-08-17 18:45;97,1
2017-08-17 19:00;91,5
2017-08-17 19:15;90
2017-08-17 19:30;90,7
2017-08-17 19:45;83
2017-08-17 20:00;79,2
2017-08-17 20:15;78,45
2017-08-17 20:30;83,65
2017-08-17 20:45;81,05
2017-08-17 21:00;84,65
2017-08-17 21:15;82,6
2017-08-17 21:30;84,45
2017-08-17 21:45;80,95
2017-08-17 22:00;84,7
2017-08-17 22:15;91,7
2017-08-17 22:30;90,35
2017-08-17 22:45;86,75
2017-08-17 23:00;91,95
2017-08-17 23:15;83,85
2017-08-17 23:30;84,8
2017-08-17 23:45;84,95
2017-08-18 00:00;86
2017-08-18 00:15;86
2017-08-18 00:30;85,1
2017-08-18 00:45;86,15
2017-08-18 01:00;86,95
2017-08-18 01:15;85,5
2017-08-18 01:30;79,9
2017-08-18 01:45;80,15
2017-08-18 02:00;82,2
2017-08-18 02:15;80,7
2017-08-18 02:30;80,85
2017-08-18 02:45;83,35
2017-08-18 03:00;83,2
2017-08-18 03:15;84,6
2017-08-18 03:30;82,55
2017-08-18 03:45;82,95
2017-08-18 04:00;82,45
2017-08-18 04:15;83,45
2017-08-18 04:30;82,95
2017-08-18 04:45;82,25
2017-08-18 05:00;82,2
2017-08-18 05:15;82,15
2017-08-18 05:30;83,5
2017-08-18 05:45;82,35
2017-08-18 06:00;82,05
2017-08-18 06:15;80,7
2017-08-18 06:30;81,25
2017-08-18 06:45;77,4
2017-08-18 07:00;76,95
2017-08-18 07:15;79,45
2017-08-18 07:30;78,9
2017-08-18 07:45;80,35
2017-08-18 08:00;79,6
2017-08-18 08:15;79,85
2017-08-18 08:30;81,3
2017-08-18 08:45;84,75
2017-08-18 09:00;86,25
2017-08-18 09:15;88
2017-08-18 09:30;88,15
2017-08-18 09:45;87,25
2017-08-18 10:00;88,1
2017-08-18 10:15;88,25
2017-08-18 10:30;91
2017-08-18 10:45;96,7
2017-08-18 11:00;97,6
2017-08-18 11:15;97,25
2017-08-18 11:30;95,9
2017-08-18 11:45;100,3
2017-08-18 12:00;97,85
2017-08-18 12:15;98,3
2017-08-18 12:30;97,75
2017-08-18 12:45;98,5
2017-08-18 13:00;96,1
2017-08-18 13:15;97
2017-08-18 13:30;94,7
2017-08-18 13:45;95
2017-08-18 14:00;94,05
2017-08-18 14:15;93,75
2017-08-18 14:30;97,6
2017-08-18 14:45;95,85
2017-08-18 15:00;92,35
2017-08-18 15:15;95,85
2017-08-18 15:30;95,35
2017-08-18 15:45;92,45
2017-08-18 16:00;91,75
2017-08-18 16:15;91,4
2017-08-18 16:30;86,2
2017-08-18 16:45;92,5
2017-08-18 17:00;93,9
2017-08-18 17:15;94,3
2017-08-18 17:30;92,9
2017-08-18 17:45;93,5
2017-08-18 18:00;94,05
2017-08-18 18:15;92,85
2017-08-18 18:30;90,75
2017-08-18 18:45;89,8
2017-08-18 19:00;89,4
2017-08-18 19:15;86,35
2017-08-18 19:30;87,9
2017-08-18 19:45;83,8
2017-08-18 20:00;83,65
2017-08-18 20:15;83,6
2017-08-18 20:30;86,55
2017-08-18 20:45;87,65
2017-08-18 21:00;87,95
2017-08-18 21:15;87,1
2017-08-18 21:30;87,55
2017-08-18 21:45;85,75
2017-08-18 22:00;88,7
2017-08-18 22:15;99,15
2017-08-18 22:30;97,35
2017-08-18 22:45;94
2017-08-18 23:00;97,15
2017-08-18 23:15;89,5
2017-08-18 23:30;88,3
2017-08-18 23:45;88,5
2017-08-19 00:00;88,85
2017-08-19 00:15;85,65
2017-08-19 00:30;85,1
2017-08-19 00:45;83,5
2017-08-19 01:00;83,55
2017-08-19 01:15;82,25
2017-08-19 01:30;81,05
2017-08-19 01:45;82,15
2017-08-19 02:00;83,05
2017-08-19 02:15;81,15
2017-08-19 02:30;80,75
2017-08-19 02:45;80,85
2017-08-19 03:00;81,45
2017-08-19 03:15;79,6
2017-08-19 03:30;79,5
2017-08-19 03:45;79,8
2017-08-19 04:00;78,9
2017-08-19 04:15;78,75
2017-08-19 04:30;79,85
2017-08-19 04:45;77,2
2017-08-19 05:00;79,5
2017-08-19 05:15;78,5
2017-08-19 05:30;79,5
2017-08-19 05:45;78,5
2017-08-19 06:00;78,9
2017-08-19 06:15;78,55
2017-08-19 06:30;77,6
2017-08-19 06:45;78,15
2017-08-19 07:00;75,1
2017-08-19 07:15;75,05
2017-08-19 07:30;73,15
2017-08-19 07:45;75,25
2017-08-19 08:00;75,05
2017-08-19 08:15;77,9
2017-08-19 08:30;77,9
2017-08-19 08:45;78,25
2017-08-19 09:00;79,4
2017-08-19 09:15;82,25
2017-08-19 09:30;81
2017-08-19 09:45;82,2
2017-08-19 10:00;82,2
2017-08-19 10:15;80,7
2017-08-19 10:30;80,3
2017-08-19 10:45;82,15
2017-08-19 11:00;81,6
2017-08-19 11:15;79,95
2017-08-19 11:30;83,9
2017-08-19 11:45;84,25
2017-08-19 12:00;83,2
2017-08-19 12:15;81,25
2017-08-19 12:30;82,75
2017-08-19 12:45;82,95
2017-08-19 13:00;83,8
2017-08-19 13:15;82,5
2017-08-19 13:30;83,55
2017-08-19 13:45;84,65
2017-08-19 14:00;84,15
2017-08-19 14:15;86,4
2017-08-19 14:30;83,3
2017-08-19 14:45;85,4
2017-08-19 15:00;84
2017-08-19 15:15;81,85
2017-08-19 15:30;85,15
2017-08-19 15:45;81,95
2017-08-19 16:00;85,05
2017-08-19 16:15;82,6
2017-08-19 16:30;83,05
2017-08-19 16:45;85,35
2017-08-19 17:00;84,25
2017-08-19 17:15;87,7
2017-08-19 17:30;87,3
2017-08-19 17:45;86,6
2017-08-19 18:00;89,15
2017-08-19 18:15;85,75
2017-08-19 18:30;88,45
2017-08-19 18:45;86,8
2017-08-19 19:00;84,1
2017-08-19 19:15;85,3
2017-08-19 19:30;84,65
2017-08-19 19:45;80,8
2017-08-19 20:00;81,05
2017-08-19 20:15;81,35
2017-08-19 20:30;87,3
2017-08-19 20:45;86,95
2017-08-19 21:00;85,95
2017-08-19 21:15;86,8
2017-08-19 21:30;88,7
2017-08-19 21:45;91,3
2017-08-19 22:00;89,05
2017-08-19 22:15;97,3
2017-08-19 22:30;97,05
2017-08-19 22:45;95,9
2017-08-19 23:00;97,4
2017-08-19 23:15;88,1
2017-08-19 23:30;87,1
2017-08-19 23:45;86,55
2017-08-20 00:00;84,75
2017-08-20 00:15;84,3
2017-08-20 00:30;83,7
2017-08-20 00:45;82,8
2017-08-20 01:00;83,1
2017-08-20 01:15;83,25
2017-08-20 01:30;81,45
2017-08-20 01:45;79,5
2017-08-20 02:00;80,2
2017-08-20 02:15;79,4
2017-08-20 02:30;80,9
2017-08-20 02:45;80,5
2017-08-20 03:00;79,85
2017-08-20 03:15;80,75
2017-08-20 03:30;80,45
2017-08-20 03:45;81,05
2017-08-20 04:00;79,95
2017-08-20 04:15;79,8
2017-08-20 04:30;80,45
2017-08-20 04:45;79,45
2017-08-20 05:00;80,25
2017-08-20 05:15;80,2
2017-08-20 05:30;80,35
2017-08-20 05:45;80,2
2017-08-20 06:00;79
2017-08-20 06:15;79,3
2017-08-20 06:30;79,25
2017-08-20 06:45;75,9
2017-08-20 07:00;74,15
2017-08-20 07:15;73,5
2017-08-20 07:30;73,95
2017-08-20 07:45;75,25
2017-08-20 08:00;73,9
2017-08-20 08:15;74,55
2017-08-20 08:30;75,75
2017-08-20 08:45;76,3
2017-08-20 09:00;77,1
2017-08-20 09:15;78,35
2017-08-20 09:30;76,6
2017-08-20 09:45;78,8
2017-08-20 10:00;83,5
2017-08-20 10:15;79,8
2017-08-20 10:30;80,3
2017-08-20 10:45;81,7
2017-08-20 11:00;80,7
2017-08-20 11:15;81,75
2017-08-20 11:30;82,35
2017-08-20 11:45;80,35
2017-08-20 12:00;84,95
2017-08-20 12:15;82,6
2017-08-20 12:30;82,65
2017-08-20 12:45;83,4
2017-08-20 13:00;82,75
2017-08-20 13:15;83
2017-08-20 13:30;83,45
2017-08-20 13:45;86,25
2017-08-20 14:00;84,65
2017-08-20 14:15;86,1
2017-08-20 14:30;87,1
2017-08-20 14:45;89,55
2017-08-20 15:00;88,1
2017-08-20 15:15;86,3
2017-08-20 15:30;87,75
2017-08-20 15:45;86,25
2017-08-20 16:00;86,4
2017-08-20 16:15;85,2
2017-08-20 16:30;84,3
2017-08-20 16:45;87,3
2017-08-20 17:00;87,75
2017-08-20 17:15;87,5
2017-08-20 17:30;85,1
2017-08-20 17:45;84,25
2017-08-20 18:00;83,45
2017-08-20 18:15;83,15
2017-08-20 18:30;83,1
2017-08-20 18:45;85,6
2017-08-20 19:00;84,95
2017-08-20 19:15;84,95
2017-08-20 19:30;83,9
2017-08-20 19:45;85,5
2017-08-20 20:00;85,9
2017-08-20 20:15;87,2
2017-08-20 20:30;90,9
2017-08-20 20:45;90,6
2017-08-20 21:00;87,95
2017-08-20 21:15;87,5
2017-08-20 21:30;86,15
2017-08-20 21:45;85,25
2017-08-20 22:00;84,35
2017-08-20 22:15;93,25
2017-08-20 22:30;93,1
2017-08-20 22:45;89,6
2017-08-20 23:00;94,85
2017-08-20 23:15;85,4
2017-08-20 23:30;84,7
2017-08-20 23:45;89,25

